星链-5342 (STARLINK-5342 )

导读

STARLINK-5342是美国SpaceX公司星链(Starlink)卫星互联网项目的一颗低轨通信卫星,于2023年5月14日由猎鹰9号火箭发射升空。作为星链星座的组成部分,它运行在近地轨道,旨在为全球尤其是偏远地区提供高速宽带互联网服务,推动全球网络覆盖,助力卫星互联网基础设施建设,目前已正常在轨运行近三年。

Basic Information
目录编号:
56516
目录名称:
STARLINK-5342
国际标识:
2023-065P
轨道中心:
EARTH
卫星名称:
星链-5342
卫星全名:
星链-5342 (STARLINK-5342 )
卫星状态:
在轨 (已飞行1210 天)
发射日期:
2023-05-14 UTC
国别 :
美国 (US)
星等 :
--
Orbit Information
数据来源 国际轨道数据
星历时间: 2026-09-05T10:54:50+0800
13小时前
查看轨道信息
半长轴: 6861.187km
偏心率: 0.0001328
轨道倾角: 43.003°
近地点辐角 281.591°
升交点赤经 278.966°
平近点角 78.479°
近地点: 482.138km
远地点: 483.962km
周期: 94.267分钟
每日圈数: 15.275798
Detailed Information
固有亮度:
5
最大亮度:
2.5
卫星平台:
Starlink v1.5
覆盖范围:
全球
运营商:
太空探索技术公司
运营商所在国:
美国
制造商(研发单位):
太空探索技术公司
制造商所在国:
美国
使用方式:
暂无
Satellite Introduction
星链(Starlink)计划是由太空探索技术公司(SpaceX)提出的一个巨型低轨卫星互联网星座项目,计划在2019年至2024年间在太空搭建由约1.2万颗卫星组成的“星链”网络,其中1584颗将部署在地球上空550千米处的近地轨道,并从2020年开始工作。该卫星仍在工作。
2D Orbit Map
3D Orbit Map
Orbit Altitude Analysis Chart
Orbit Inclination Analysis Chart
Orbit Comprehensive Analysis Chart
View Comprehensive Chart
Conjunction Data List
Event ID Objects TCA Miss Dist (km) Collision Risk Probability Collision Risk Index (CRI) Action
CDM_260906-013205-651606-308521
2026-09-06T
01:32:41+0000
0.335 km
远距离
2.288778E-4 高风险 0.82
CDM_260908-020305-651606-249021
2026-09-08T
02:03:15+0000
0.742 km
远距离
4.093242E-5 中风险 0.67
CDM_260906-132005-651605-752722
2026-09-06T
13:20:55+0000
1.226 km
极远距离
1.017966E-5 中风险 0.55
CDM_260907-203305-651606-249021
2026-09-07T
20:33:43+0000
1.322 km
极远距离
5.79622E-6 低风险 0.5
CDM_260906-061705-651605-752722
2026-09-06T
06:17:11+0000
2.881 km
极远距离
1.12829E-6 低风险 0.36
CDM_260907-185905-651606-249021
2026-09-07T
18:59:34+0000
2.740 km
极远距离
9.404725E-7 极低风险 0.34